| time (UTC) | temp F | wind direction | speed MPH | gust MPH | rain 1hr in | rain 24hr in | rain mn in | humidity % | barometer mb |
| 20260904162514 | 79 | 270 | 31.0 | 34.0 | 0.00 | 0.00 | 0.00 | 49 | |
| 20260904162011 | 79 | 268 | 34.0 | 36.0 | 0.00 | 0.00 | 0.00 | 49 | |
| 20260904161511 | 79 | 262 | 38.0 | 40.0 | 0.00 | 0.00 | 0.00 | 48 | |
| 20260904161009 | 79 | 275 | 38.0 | 47.0 | 0.00 | 0.00 | 0.00 | 48 | |
| 20260904160510 | 79 | 275 | 31.0 | 36.0 | 0.00 | 0.00 | 0.00 | 49 | |
| 20260904160011 | 79 | 271 | 29.0 | 34.0 | 0.00 | 0.00 | 0.00 | 49 | |
| 20260904155510 | 79 | 273 | 29.0 | 34.0 | 0.00 | 0.00 | 0.00 | 49 | |
| 20260904155010 | 79 | 268 | 38.0 | 43.0 | 0.00 | 0.00 | 0.00 | 48 | |
| 20260904154510 | 79 | 272 | 29.0 | 34.0 | 0.00 | 0.00 | 0.00 | 48 | |
| 20260904154010 | 79 | 283 | 29.0 | 34.0 | 0.00 | 0.00 | 0.00 | 49 | |
| 20260904153511 | 79 | 267 | 29.0 | 34.0 | 0.00 | 0.00 | 0.00 | 49 | |
| 20260904153011 | 79 | 277 | 31.0 | 36.0 | 0.00 | 0.00 | 0.00 | 49 | |
| 20260904152511 | 79 | 276 | 36.0 | 38.0 | 0.00 | 0.00 | 0.00 | 49 | |
| 20260904152017 | 79 | 274 | 34.0 | 43.0 | 0.00 | 0.00 | 0.00 | 49 | |
| 20260904151010 | 79 | 282 | 29.0 | 34.0 | 0.00 | 0.00 | 0.00 | 49 | |
| 20260904150510 | 79 | 272 | 27.0 | 31.0 | 0.00 | 0.00 | 0.00 | 49 | |
| 20260904150011 | 79 | 281 | 29.0 | 36.0 | 0.00 | 0.00 | 0.00 | 50 | |
| 20260904145511 | 79 | 279 | 31.0 | 40.0 | 0.00 | 0.00 | 0.00 | 50 | |
| 20260904145010 | 79 | 259 | 27.0 | 31.0 | 0.00 | 0.00 | 0.00 | 50 | |
| 20260904144510 | 79 | 249 | 27.0 | 34.0 | 0.00 | 0.00 | 0.00 | 48 | |
| 20260904144011 | 79 | 257 | 29.0 | 34.0 | 0.00 | 0.00 | 0.00 | 48 | |
| 20260904143510 | 79 | 251 | 34.0 | 38.0 | 0.00 | 0.00 | 0.00 | 48 | |
| 20260904143011 | 79 | 255 | 36.0 | 45.0 | 0.00 | 0.00 | 0.00 | 49 | |
| 20260904142510 | 77 | 254 | 38.0 | 45.0 | 0.00 | 0.00 | 0.00 | 49 | |
| 20260904142015 | 79 | 274 | 38.0 | 40.0 | 0.00 | 0.00 | 0.00 | 49 | |
| 20260904141510 | 77 | 272 | 38.0 | 43.0 | 0.00 | 0.00 | 0.00 | 50 | |
| 20260904141010 | 77 | 270 | 38.0 | 43.0 | 0.00 | 0.00 | 0.00 | 50 | |
| 20260904140510 | 79 | 257 | 31.0 | 38.0 | 0.00 | 0.00 | 0.00 | 50 | |
| 20260904140010 | 79 | 261 | 34.0 | 38.0 | 0.00 | 0.00 | 0.00 | 50 | |
| 20260904135511 | 77 | 280 | 34.0 | 38.0 | 0.00 | 0.00 | 0.00 | 52 | |
| 20260904135011 | 77 | 284 | 31.0 | 36.0 | 0.00 | 0.00 | 0.00 | 53 | |
| 20260904134511 | 77 | 271 | 34.0 | 36.0 | 0.00 | 0.00 | 0.00 | 53 | |
| 20260904134010 | 77 | 270 | 31.0 | 38.0 | 0.00 | 0.00 | 0.00 | 54 | |
| 20260904133511 | 77 | 264 | 34.0 | 40.0 | 0.00 | 0.00 | 0.00 | 53 | |
| 20260904133011 | 75 | 275 | 31.0 | 36.0 | 0.00 | 0.00 | 0.00 | 54 | |
| 20260904132511 | 75 | 272 | 34.0 | 38.0 | 0.00 | 0.00 | 0.00 | 55 | |
| 20260904132018 | 75 | 274 | 34.0 | 38.0 | 0.00 | 0.00 | 0.00 | 54 | |
| 20260904131510 | 75 | 275 | 36.0 | 43.0 | 0.00 | 0.00 | 0.00 | 55 | |
| 20260904131011 | 75 | 275 | 31.0 | 38.0 | 0.00 | 0.00 | 0.00 | 55 | |
| 20260904130511 | 75 | 274 | 34.0 | 36.0 | 0.00 | 0.00 | 0.00 | 56 | |
| 20260904130011 | 75 | 270 | 38.0 | 43.0 | 0.00 | 0.00 | 0.00 | 55 | |
| 20260904125510 | 75 | 282 | 36.0 | 43.0 | 0.00 | 0.00 | 0.00 | 54 | |
| 20260904125010 | 75 | 270 | 36.0 | 43.0 | 0.00 | 0.00 | 0.00 | 57 | |
| 20260904124511 | 75 | 270 | 34.0 | 43.0 | 0.00 | 0.00 | 0.00 | 57 | |
| 20260904124011 | 75 | 257 | 36.0 | 38.0 | 0.00 | 0.00 | 0.00 | 55 | |
| 20260904123510 | 75 | 267 | 29.0 | 34.0 | 0.00 | 0.00 | 0.00 | 57 | |
| 20260904123010 | 75 | 279 | 36.0 | 40.0 | 0.00 | 0.00 | 0.00 | 57 | |
| 20260904122511 | 75 | 276 | 38.0 | 43.0 | 0.00 | 0.00 | 0.00 | 57 | |
| 20260904122018 | 75 | 278 | 31.0 | 43.0 | 0.00 | 0.00 | 0.00 | 59 | |
| 20260904121511 | 73 | 272 | 36.0 | 43.0 | 0.00 | 0.00 | 0.00 | 58 | |
| 20260904121011 | 75 | 279 | 40.0 | 49.0 | 0.00 | 0.00 | 0.00 | 58 | |
| 20260904120511 | 75 | 267 | 34.0 | 38.0 | 0.00 | 0.00 | 0.00 | 59 | |
| 20260904120010 | 73 | 275 | 36.0 | 40.0 | 0.00 | 0.00 | 0.00 | 61 | |
| 20260904115511 | 73 | 260 | 36.0 | 40.0 | 0.00 | 0.00 | 0.00 | 59 | |
| 20260904115010 | 73 | 274 | 31.0 | 38.0 | 0.00 | 0.00 | 0.00 | 61 | |
| 20260904114509 | 73 | 267 | 34.0 | 43.0 | 0.00 | 0.00 | 0.00 | 63 | |
| 20260904114010 | 72 | 264 | 31.0 | 38.0 | 0.00 | 0.00 | 0.00 | 64 | |
| 20260904113511 | 72 | 271 | 36.0 | 40.0 | 0.00 | 0.00 | 0.00 | 64 | |
| 20260904113010 | 72 | 275 | 34.0 | 38.0 | 0.00 | 0.00 | 0.00 | 65 | |
| 20260904112510 | 72 | 272 | 38.0 | 40.0 | 0.00 | 0.00 | 0.00 | 63 | |
| 20260904112018 | 73 | 267 | 36.0 | 43.0 | 0.00 | 0.00 | 0.00 | 61 | |
| 20260904111510 | 73 | 274 | 27.0 | 36.0 | 0.00 | 0.00 | 0.00 | 62 | |
| 20260904111009 | 73 | 272 | 27.0 | 31.0 | 0.00 | 0.00 | 0.00 | 63 | |
| 20260904110518 | 72 | 270 | 34.0 | 38.0 | 0.00 | 0.00 | 0.00 | 64 | |
| 20260904110011 | 72 | 273 | 27.0 | 29.0 | 0.00 | 0.00 | 0.00 | 66 | |
| 20260904105511 | 70 | 274 | 36.0 | 40.0 | 0.00 | 0.00 | 0.00 | 65 | |
| 20260904105012 | 70 | 271 | 36.0 | 38.0 | 0.00 | 0.00 | 0.00 | 64 | |
| 20260904104511 | 72 | 269 | 34.0 | 38.0 | 0.00 | 0.00 | 0.00 | 64 | |
| 20260904104010 | 72 | 266 | 29.0 | 31.0 | 0.00 | 0.00 | 0.00 | 64 | |
| 20260904103511 | 72 | 254 | 38.0 | 40.0 | 0.00 | 0.00 | 0.00 | 62 | |
| 20260904103011 | 72 | 247 | 34.0 | 38.0 | 0.00 | 0.00 | 0.00 | 62 | |
| 20260904102510 | 72 | 249 | 25.0 | 31.0 | 0.00 | 0.00 | 0.00 | 64 | |
| 20260904102010 | 70 | 261 | 38.0 | 43.0 | 0.00 | 0.00 | 0.00 | 64 | |
| 20260904101510 | 72 | 252 | 27.0 | 36.0 | 0.00 | 0.00 | 0.00 | 64 | |
| 20260904101010 | 70 | 261 | 34.0 | 38.0 | 0.00 | 0.00 | 0.00 | 65 | |
| 20260904100508 | 70 | 268 | 29.0 | 40.0 | 0.00 | 0.00 | 0.00 | 65 | |
| 20260904100010 | 70 | 252 | 31.0 | 36.0 | 0.00 | 0.00 | 0.00 | 65 | |
| 20260904095510 | 70 | 257 | 36.0 | 43.0 | 0.00 | 0.00 | 0.00 | 65 | |
| 20260904095011 | 70 | 265 | 34.0 | 38.0 | 0.00 | 0.00 | 0.00 | 65 | |
| 20260904094511 | 70 | 263 | 38.0 | 40.0 | 0.00 | 0.00 | 0.00 | 65 | |
| 20260904094010 | 70 | 261 | 29.0 | 38.0 | 0.00 | 0.00 | 0.00 | 66 | |
| 20260904093510 | 70 | 262 | 36.0 | 38.0 | 0.00 | 0.00 | 0.00 | 65 | |
| 20260904093011 | 70 | 256 | 27.0 | 29.0 | 0.00 | 0.00 | 0.00 | 65 | |
| 20260904092510 | 70 | 269 | 31.0 | 34.0 | 0.00 | 0.00 | 0.00 | 64 | |
| 20260904092018 | 70 | 265 | 34.0 | 36.0 | 0.00 | 0.00 | 0.00 | 66 | |
| 20260904091510 | 68 | 258 | 36.0 | 40.0 | 0.00 | 0.00 | 0.00 | 67 | |
| 20260904091011 | 70 | 263 | 29.0 | 34.0 | 0.00 | 0.00 | 0.00 | 67 | |
| 20260904090511 | 70 | 257 | 27.0 | 31.0 | 0.00 | 0.00 | 0.00 | 65 | |
| 20260904090010 | 68 | 257 | 29.0 | 34.0 | 0.00 | 0.00 | 0.00 | 68 | |
| 20260904085510 | 68 | 263 | 31.0 | 36.0 | 0.00 | 0.00 | 0.00 | 68 | |
| 20260904085010 | 68 | 262 | 29.0 | 36.0 | 0.00 | 0.00 | 0.00 | 68 | |
| 20260904084510 | 70 | 269 | 34.0 | 38.0 | 0.00 | 0.00 | 0.00 | 67 | |
| 20260904084010 | 70 | 266 | 31.0 | 38.0 | 0.00 | 0.00 | 0.00 | 67 | |
| 20260904083510 | 68 | 267 | 36.0 | 43.0 | 0.00 | 0.00 | 0.00 | 67 | |
| 20260904083010 | 70 | 260 | 34.0 | 38.0 | 0.00 | 0.00 | 0.00 | 67 | |
| 20260904082510 | 68 | 267 | 31.0 | 34.0 | 0.00 | 0.00 | 0.00 | 68 | |
| 20260904082017 | 68 | 258 | 29.0 | 34.0 | 0.00 | 0.00 | 0.00 | 68 | |
| 20260904081510 | 68 | 256 | 29.0 | 34.0 | 0.00 | 0.00 | 0.00 | 68 | |
| 20260904081009 | 68 | 256 | 25.0 | 29.0 | 0.00 | 0.00 | 0.00 | 69 | |
| 20260904080518 | 68 | 267 | 20.0 | 22.0 | 0.00 | 0.00 | 0.00 | 72 | |
| 20260904080010 | 66 | 259 | 27.0 | 31.0 | 0.00 | 0.00 | 0.00 | 72 | |
| 20260904075511 | 66 | 260 | 22.0 | 25.0 | 0.00 | 0.00 | 0.00 | 74 | |
| 20260904075011 | 66 | 265 | 25.0 | 27.0 | 0.00 | 0.00 | 0.00 | 74 | |
| 20260904074511 | 66 | 254 | 22.0 | 25.0 | 0.00 | 0.00 | 0.00 | 74 | |
| 20260904074011 | 64 | 258 | 16.0 | 20.0 | 0.00 | 0.00 | 0.00 | 76 | |
| 20260904073510 | 64 | 254 | 13.0 | 18.0 | 0.00 | 0.00 | 0.00 | 76 | |
| 20260904073011 | 64 | 248 | 16.0 | 20.0 | 0.00 | 0.00 | 0.00 | 77 | |
| 20260904072510 | 64 | 243 | 11.0 | 13.0 | 0.00 | 0.00 | 0.00 | 78 | |
| 20260904072011 | 64 | 237 | 11.0 | 18.0 | 0.00 | 0.00 | 0.00 | 77 | |
| 20260904071511 | 64 | 227 | 13.0 | 16.0 | 0.00 | 0.00 | 0.00 | 77 | |
| 20260904071009 | 64 | 235 | 13.0 | 16.0 | 0.00 | 0.00 | 0.00 | 77 | |
| 20260904070517 | 64 | 235 | 16.0 | 20.0 | 0.00 | 0.00 | 0.00 | 76 | |
| 20260904070010 | 63 | 239 | 16.0 | 20.0 | 0.00 | 0.00 | 0.00 | 78 | |
| 20260904065510 | 63 | 249 | 18.0 | 20.0 | 0.00 | 0.00 | 0.00 | 79 | |
| 20260904065010 | 63 | 244 | 13.0 | 16.0 | 0.00 | 0.00 | 0.00 | 79 | |
| 20260904064510 | 63 | 240 | 13.0 | 18.0 | 0.00 | 0.00 | 0.00 | 79 | |
| 20260904064011 | 63 | 239 | 16.0 | 18.0 | 0.00 | 0.00 | 0.00 | 80 | |
| 20260904063511 | 63 | 241 | 18.0 | 20.0 | 0.00 | 0.00 | 0.00 | 80 | |
| 20260904063010 | 63 | 246 | 16.0 | 18.0 | 0.00 | 0.00 | 0.00 | 80 | |
| 20260904062511 | 63 | 246 | 16.0 | 16.0 | 0.00 | 0.00 | 0.00 | 79 | |
| 20260904062017 | 63 | 250 | 16.0 | 18.0 | 0.00 | 0.00 | 0.00 | 79 | |
| 20260904061511 | 63 | 244 | 16.0 | 18.0 | 0.00 | 0.00 | 0.00 | 79 | |
| 20260904061011 | 63 | 239 | 16.0 | 20.0 | 0.00 | 0.00 | 0.00 | 79 | |
| 20260904060510 | 63 | 238 | 16.0 | 20.0 | 0.00 | 0.00 | 0.00 | 79 | |
| 20260904060010 | 63 | 232 | 16.0 | 18.0 | 0.00 | 0.00 | 0.00 | 79 | |
| 20260904055510 | 63 | 226 | 13.0 | 16.0 | 0.00 | 0.00 | 0.00 | 80 | |
| 20260904055009 | 61 | 224 | 13.0 | 16.0 | 0.00 | 0.00 | 0.00 | 82 | |
| 20260904054510 | 61 | 229 | 13.0 | 16.0 | 0.00 | 0.00 | 0.00 | 83 | |
| 20260904054011 | 61 | 241 | 13.0 | 16.0 | 0.00 | 0.00 | 0.00 | 84 | |
| 20260904053510 | 61 | 243 | 13.0 | 16.0 | 0.00 | 0.00 | 0.00 | 83 | |
| 20260904053010 | 61 | 245 | 13.0 | 16.0 | 0.00 | 0.00 | 0.00 | 83 | |
| 20260904052511 | 61 | 263 | 13.0 | 16.0 | 0.00 | 0.00 | 0.00 | 84 | |
| 20260904052018 | 61 | 263 | 18.0 | 20.0 | 0.00 | 0.00 | 0.00 | 83 | |
| 20260904051511 | 61 | 252 | 16.0 | 16.0 | 0.00 | 0.00 | 0.00 | 83 | |
| 20260904051011 | 61 | 255 | 16.0 | 18.0 | 0.00 | 0.00 | 0.00 | 83 | |
| 20260904050510 | 61 | 249 | 16.0 | 18.0 | 0.00 | 0.00 | 0.00 | 83 | |
| 20260904050010 | 61 | 251 | 16.0 | 18.0 | 0.00 | 0.00 | 0.00 | 83 | |
| 20260904045510 | 61 | 250 | 20.0 | 22.0 | 0.00 | 0.00 | 0.00 | 83 | |
| 20260904044511 | 61 | 251 | 18.0 | 20.0 | 0.00 | 0.00 | 0.00 | 83 | |
| 20260904044011 | 61 | 250 | 16.0 | 18.0 | 0.00 | 0.00 | 0.00 | 84 | |
| 20260904043511 | 61 | 260 | 16.0 | 18.0 | 0.00 | 0.00 | 0.00 | 84 | |
| 20260904043011 | 59 | 255 | 16.0 | 16.0 | 0.00 | 0.00 | 0.00 | 85 | |
| 20260904042510 | 61 | 259 | 16.0 | 18.0 | 0.00 | 0.00 | 0.00 | 85 | |
| 20260904042011 | 61 | 271 | 13.0 | 16.0 | 0.00 | 0.00 | 0.00 | 85 | |
| 20260904041512 | 61 | 270 | 16.0 | 18.0 | 0.00 | 0.00 | 0.00 | 84 | |
| 20260904041010 | 61 | 272 | 20.0 | 20.0 | 0.00 | 0.00 | 0.00 | 85 | |
| 20260904040510 | 59 | 270 | 18.0 | 18.0 | 0.00 | 0.00 | 0.00 | 86 | |
| 20260904040010 | 59 | 268 | 16.0 | 18.0 | 0.00 | 0.00 | 0.00 | 86 | |
| 20260904035511 | 61 | 271 | 16.0 | 18.0 | 0.00 | 0.00 | 0.00 | 86 | |
| 20260904035010 | 59 | 270 | 16.0 | 18.0 | 0.00 | 0.00 | 0.00 | 86 | |
| 20260904034511 | 61 | 266 | 16.0 | 16.0 | 0.00 | 0.00 | 0.00 | 85 | |
| 20260904034011 | 61 | 268 | 16.0 | 18.0 | 0.00 | 0.00 | 0.00 | 85 | |
| 20260904033510 | 61 | 260 | 18.0 | 18.0 | 0.00 | 0.00 | 0.00 | 85 | |
| 20260904033010 | 61 | 257 | 16.0 | 18.0 | 0.00 | 0.00 | 0.00 | 85 | |
| 20260904032509 | 61 | 252 | 16.0 | 18.0 | 0.00 | 0.00 | 0.00 | 85 | |
| 20260904032016 | 59 | 258 | 18.0 | 20.0 | 0.00 | 0.00 | 0.00 | 85 | |
| 20260904031510 | 59 | 257 | 16.0 | 18.0 | 0.00 | 0.00 | 0.00 | 85 | |
| 20260904031010 | 59 | 254 | 16.0 | 16.0 | 0.00 | 0.00 | 0.00 | 85 | |
| 20260904030510 | 59 | 264 | 16.0 | 18.0 | 0.00 | 0.00 | 0.00 | 85 | |
| 20260904030011 | 59 | 260 | 16.0 | 16.0 | 0.00 | 0.00 | 0.00 | 85 | |
| 20260904025510 | 59 | 264 | 16.0 | 18.0 | 0.00 | 0.00 | 0.00 | 85 | |
| 20260904025010 | 59 | 271 | 16.0 | 18.0 | 0.00 | 0.00 | 0.00 | 85 | |
| 20260904024511 | 59 | 266 | 16.0 | 16.0 | 0.00 | 0.00 | 0.00 | 85 | |
| 20260904024011 | 59 | 274 | 16.0 | 16.0 | 0.00 | 0.00 | 0.00 | 85 | |
| 20260904023510 | 59 | 274 | 16.0 | 18.0 | 0.00 | 0.00 | 0.00 | 85 | |
| 20260904023010 | 59 | 271 | 18.0 | 18.0 | 0.00 | 0.00 | 0.00 | 85 | |
| 20260904022510 | 59 | 270 | 18.0 | 18.0 | 0.00 | 0.00 | 0.00 | 86 | |
| 20260904022017 | 59 | 268 | 16.0 | 18.0 | 0.00 | 0.00 | 0.00 | 86 | |
| 20260904021510 | 59 | 268 | 16.0 | 18.0 | 0.00 | 0.00 | 0.00 | 85 | |
| 20260904021010 | 59 | 269 | 18.0 | 18.0 | 0.00 | 0.00 | 0.00 | 85 | |
| 20260904020010 | 59 | 267 | 16.0 | 18.0 | 0.00 | 0.00 | 0.00 | 85 | |
| 20260904015510 | 59 | 274 | 16.0 | 18.0 | 0.00 | 0.00 | 0.00 | 84 | |
| 20260904015010 | 59 | 271 | 18.0 | 20.0 | 0.00 | 0.00 | 0.00 | 84 | |
| 20260904014511 | 59 | 267 | 18.0 | 20.0 | 0.00 | 0.00 | 0.00 | 85 | |
| 20260904014010 | 59 | 263 | 18.0 | 18.0 | 0.00 | 0.00 | 0.00 | 85 | |
| 20260904013510 | 59 | 265 | 16.0 | 18.0 | 0.00 | 0.00 | 0.00 | 85 | |
| 20260904013010 | 59 | 267 | 16.0 | 16.0 | 0.00 | 0.00 | 0.00 | 85 | |
| 20260904012515 | 59 | 270 | 16.0 | 16.0 | 0.00 | 0.00 | 0.00 | 85 | |
| 20260904012011 | 59 | 272 | 18.0 | 20.0 | 0.00 | 0.00 | 0.00 | 85 | |
| 20260904011510 | 59 | 272 | 18.0 | 18.0 | 0.00 | 0.00 | 0.00 | 85 | |
| 20260904011010 | 59 | 273 | 18.0 | 18.0 | 0.00 | 0.00 | 0.00 | 85 | |
| 20260904010510 | 59 | 275 | 16.0 | 18.0 | 0.00 | 0.00 | 0.00 | 85 | |
| 20260904010010 | 59 | 274 | 16.0 | 18.0 | 0.00 | 0.00 | 0.00 | 85 | |
| 20260904005510 | 59 | 276 | 16.0 | 18.0 | 0.00 | 0.00 | 0.00 | 85 | |
| 20260904005010 | 59 | 278 | 16.0 | 16.0 | 0.00 | 0.00 | 0.00 | 84 | |
| 20260904004510 | 59 | 273 | 13.0 | 16.0 | 0.00 | 0.00 | 0.00 | 83 | |
| 20260904004010 | 59 | 276 | 13.0 | 13.0 | 0.00 | 0.00 | 0.00 | 84 | |
| 20260904003510 | 59 | 279 | 13.0 | 16.0 | 0.00 | 0.00 | 0.00 | 82 | |
| 20260904003011 | 59 | 282 | 16.0 | 16.0 | 0.00 | 0.00 | 0.00 | 84 | |
| 20260904002511 | 59 | 278 | 16.0 | 18.0 | 0.00 | 0.00 | 0.00 | 84 | |
| 20260904002017 | 59 | 279 | 16.0 | 18.0 | 0.00 | 0.00 | 0.00 | 84 | |
| 20260904001510 | 59 | 278 | 18.0 | 20.0 | 0.00 | 0.00 | 0.00 | 83 | |
| 20260904001011 | 59 | 275 | 18.0 | 20.0 | 0.00 | 0.00 | 0.00 | 83 | |
| 20260904000011 | 59 | 276 | 18.0 | 20.0 | 0.00 | 0.00 | 0.00 | 83 | |
| 20260903235510 | 59 | 275 | 18.0 | 18.0 | 0.00 | 0.00 | 0.00 | 83 | |
| 20260903235010 | 59 | 274 | 16.0 | 18.0 | 0.00 | 0.00 | 0.00 | 83 | |
| 20260903234510 | 59 | 274 | 20.0 | 20.0 | 0.00 | 0.00 | 0.00 | 83 | |
| 20260903234010 | 59 | 275 | 20.0 | 22.0 | 0.00 | 0.00 | 0.00 | 83 | |
| 20260903233510 | 59 | 273 | 20.0 | 22.0 | 0.00 | 0.00 | 0.00 | 83 | |
| 20260903233010 | 59 | 276 | 20.0 | 22.0 | 0.00 | 0.00 | 0.00 | 82 | |
| 20260903232511 | 59 | 274 | 22.0 | 22.0 | 0.00 | 0.00 | 0.00 | 82 | |
| 20260903232018 | 59 | 271 | 22.0 | 22.0 | 0.00 | 0.00 | 0.00 | 82 | |
| 20260903231510 | 59 | 271 | 22.0 | 25.0 | 0.00 | 0.00 | 0.00 | 82 | |
| 20260903231009 | 59 | 271 | 20.0 | 22.0 | 0.00 | 0.00 | 0.00 | 82 | |
| 20260903230511 | 59 | 277 | 20.0 | 22.0 | 0.00 | 0.00 | 0.00 | 82 | |
| 20260903230010 | 59 | 275 | 20.0 | 22.0 | 0.00 | 0.00 | 0.00 | 82 | |
| 20260903225510 | 59 | 272 | 20.0 | 20.0 | 0.00 | 0.00 | 0.00 | 82 | |
| 20260903225011 | 59 | 276 | 20.0 | 22.0 | 0.00 | 0.00 | 0.00 | 82 | |
| 20260903224511 | 59 | 278 | 18.0 | 18.0 | 0.00 | 0.00 | 0.00 | 82 | |
| 20260903224010 | 59 | 273 | 18.0 | 20.0 | 0.00 | 0.00 | 0.00 | 82 | |
| 20260903223511 | 61 | 272 | 20.0 | 20.0 | 0.00 | 0.00 | 0.00 | 81 | |
| 20260903223010 | 61 | 269 | 18.0 | 20.0 | 0.00 | 0.00 | 0.00 | 80 | |
| 20260903222511 | 59 | 272 | 20.0 | 22.0 | 0.00 | 0.00 | 0.00 | 80 | |
| 20260903222011 | 61 | 271 | 18.0 | 20.0 | 0.00 | 0.00 | 0.00 | 80 | |
| 20260903221510 | 59 | 272 | 20.0 | 20.0 | 0.00 | 0.00 | 0.00 | 80 | |
| 20260903221009 | 59 | 270 | 20.0 | 20.0 | 0.00 | 0.00 | 0.00 | 80 | |
| 20260903220510 | 59 | 273 | 18.0 | 20.0 | 0.00 | 0.00 | 0.00 | 81 | |
| 20260903220011 | 61 | 269 | 20.0 | 22.0 | 0.00 | 0.00 | 0.00 | 80 | |
| 20260903215511 | 59 | 269 | 16.0 | 18.0 | 0.00 | 0.00 | 0.00 | 80 | |
| 20260903215010 | 61 | 272 | 20.0 | 25.0 | 0.00 | 0.00 | 0.00 | 80 | |
| 20260903214511 | 61 | 269 | 20.0 | 25.0 | 0.00 | 0.00 | 0.00 | 80 | |
| 20260903214010 | 61 | 269 | 20.0 | 25.0 | 0.00 | 0.00 | 0.00 | 79 | |
| 20260903213511 | 61 | 270 | 20.0 | 22.0 | 0.00 | 0.00 | 0.00 | 79 | |
| 20260903213011 | 61 | 274 | 22.0 | 25.0 | 0.00 | 0.00 | 0.00 | 78 | |
| 20260903212511 | 61 | 276 | 22.0 | 22.0 | 0.00 | 0.00 | 0.00 | 78 | |
| 20260903212018 | 61 | 274 | 20.0 | 22.0 | 0.00 | 0.00 | 0.00 | 77 | |
| 20260903211511 | 61 | 275 | 22.0 | 22.0 | 0.00 | 0.00 | 0.00 | 76 | |
| 20260903211010 | 61 | 274 | 20.0 | 22.0 | 0.00 | 0.00 | 0.00 | 76 | |
| 20260903210510 | 61 | 277 | 20.0 | 22.0 | 0.00 | 0.00 | 0.00 | 76 | |
| 20260903210010 | 61 | 275 | 20.0 | 22.0 | 0.00 | 0.00 | 0.00 | 75 | |
| 20260903205510 | 63 | 278 | 22.0 | 25.0 | 0.00 | 0.00 | 0.00 | 74 | |
| 20260903205011 | 63 | 276 | 22.0 | 25.0 | 0.00 | 0.00 | 0.00 | 74 | |
| 20260903204511 | 63 | 277 | 20.0 | 22.0 | 0.00 | 0.00 | 0.00 | 74 | |
| 20260903204010 | 63 | 278 | 18.0 | 20.0 | 0.00 | 0.00 | 0.00 | 74 | |
| 20260903203510 | 61 | 272 | 20.0 | 22.0 | 0.00 | 0.00 | 0.00 | 74 | |
| 20260903203011 | 63 | 273 | 20.0 | 25.0 | 0.00 | 0.00 | 0.00 | 74 | |
| 20260903202511 | 63 | 274 | 22.0 | 25.0 | 0.00 | 0.00 | 0.00 | 74 | |
| 20260903202018 | 61 | 275 | 22.0 | 27.0 | 0.00 | 0.00 | 0.00 | 75 | |
| 20260903201511 | 61 | 272 | 22.0 | 27.0 | 0.00 | 0.00 | 0.00 | 75 | |
| 20260903201010 | 61 | 271 | 20.0 | 25.0 | 0.00 | 0.00 | 0.00 | 75 | |
| 20260903200511 | 61 | 267 | 22.0 | 22.0 | 0.00 | 0.00 | 0.00 | 76 | |
| 20260903200010 | 61 | 268 | 20.0 | 22.0 | 0.00 | 0.00 | 0.00 | 76 | |
| 20260903195510 | 61 | 269 | 20.0 | 22.0 | 0.00 | 0.00 | 0.00 | 76 | |
| 20260903195011 | 61 | 268 | 22.0 | 25.0 | 0.00 | 0.00 | 0.00 | 76 | |
| 20260903194510 | 61 | 267 | 22.0 | 25.0 | 0.00 | 0.00 | 0.00 | 76 | |
| 20260903194010 | 61 | 271 | 22.0 | 22.0 | 0.00 | 0.00 | 0.00 | 76 | |
| 20260903193510 | 61 | 270 | 22.0 | 25.0 | 0.00 | 0.00 | 0.00 | 76 | |
| 20260903193011 | 61 | 269 | 25.0 | 27.0 | 0.00 | 0.00 | 0.00 | 76 | |
| 20260903192510 | 61 | 270 | 27.0 | 29.0 | 0.00 | 0.00 | 0.00 | 76 | |
| 20260903192010 | 61 | 259 | 22.0 | 25.0 | 0.00 | 0.00 | 0.00 | 78 | |
| 20260903191517 | 61 | 250 | 20.0 | 20.0 | 0.00 | 0.00 | 0.00 | 78 | |
| 20260903191009 | 61 | 247 | 16.0 | 18.0 | 0.00 | 0.00 | 0.00 | 79 | |
| 20260903190511 | 61 | 249 | 16.0 | 16.0 | 0.00 | 0.00 | 0.00 | 78 | |
| 20260903190011 | 61 | 235 | 16.0 | 18.0 | 0.00 | 0.00 | 0.00 | 78 | |
| 20260903185510 | 61 | 233 | 16.0 | 18.0 | 0.00 | 0.00 | 0.00 | 78 | |
| 20260903185012 | 61 | 247 | 13.0 | 16.0 | 0.00 | 0.00 | 0.00 | 78 | |
| 20260903184510 | 61 | 251 | 13.0 | 16.0 | 0.00 | 0.00 | 0.00 | 76 | |
| 20260903184010 | 61 | 247 | 13.0 | 16.0 | 0.00 | 0.00 | 0.00 | 77 | |
| 20260903183511 | 61 | 249 | 11.0 | 11.0 | 0.00 | 0.00 | 0.00 | 76 | |
| 20260903183010 | 61 | 262 | 13.0 | 16.0 | 0.00 | 0.00 | 0.00 | 76 | |
| 20260903182511 | 61 | 256 | 13.0 | 16.0 | 0.00 | 0.00 | 0.00 | 77 | |
| 20260903182018 | 61 | 251 | 13.0 | 13.0 | 0.00 | 0.00 | 0.00 | 77 | |
| 20260903181511 | 61 | 262 | 16.0 | 18.0 | 0.00 | 0.00 | 0.00 | 77 | |
| 20260903181009 | 61 | 256 | 16.0 | 16.0 | 0.00 | 0.00 | 0.00 | 77 | |
| 20260903180510 | 61 | 267 | 18.0 | 20.0 | 0.00 | 0.00 | 0.00 | 76 | |
| 20260903180011 | 61 | 263 | 18.0 | 18.0 | 0.00 | 0.00 | 0.00 | 77 | |
| 20260903175510 | 61 | 261 | 18.0 | 20.0 | 0.00 | 0.00 | 0.00 | 77 | |
| 20260903175010 | 61 | 264 | 18.0 | 20.0 | 0.00 | 0.00 | 0.00 | 77 | |
| 20260903174510 | 61 | 262 | 18.0 | 20.0 | 0.00 | 0.00 | 0.00 | 77 | |
| 20260903174010 | 61 | 262 | 18.0 | 20.0 | 0.00 | 0.00 | 0.00 | 76 | |
| 20260903173510 | 61 | 267 | 20.0 | 20.0 | 0.00 | 0.00 | 0.00 | 75 | |
| 20260903173011 | 61 | 272 | 22.0 | 22.0 | 0.00 | 0.00 | 0.00 | 75 | |
| 20260903172511 | 61 | 274 | 22.0 | 25.0 | 0.00 | 0.00 | 0.00 | 75 | |
| 20260903172013 | 61 | 270 | 25.0 | 27.0 | 0.00 | 0.00 | 0.00 | 74 | |
| 20260903171511 | 61 | 271 | 27.0 | 29.0 | 0.00 | 0.00 | 0.00 | 74 | |
| 20260903171011 | 63 | 269 | 27.0 | 29.0 | 0.00 | 0.00 | 0.00 | 73 | |
| 20260903170510 | 63 | 261 | 25.0 | 27.0 | 0.00 | 0.00 | 0.00 | 72 | |
| 20260903170010 | 63 | 259 | 22.0 | 25.0 | 0.00 | 0.00 | 0.00 | 70 | |
| 20260903165511 | 63 | 259 | 22.0 | 27.0 | 0.00 | 0.00 | 0.00 | 70 | |
| 20260903165010 | 63 | 267 | 22.0 | 27.0 | 0.00 | 0.00 | 0.00 | 69 | |
| 20260903164510 | 63 | 259 | 22.0 | 27.0 | 0.00 | 0.00 | 0.00 | 68 | |
| 20260903164010 | 63 | 267 | 25.0 | 27.0 | 0.00 | 0.00 | 0.00 | 68 | |
| 20260903163510 | 63 | 270 | 25.0 | 29.0 | 0.00 | 0.00 | 0.00 | 68 | |
| 20260903163011 | 63 | 271 | 25.0 | 29.0 | 0.00 | 0.00 | 0.00 | 68 |